STARLINK-11604, 63133

Orbit data source: Space-Track

STARLINK-11604, 63133 is a payload satellite owned by SpaceX/Seattle (US) in LEO that was launched on Mon, 03 Mar 2025 UTC via an FALCON 9 launch vehicle from the Air Force Eastern Test Range (AFETR). Payload-class satellites include a variety of spacecraft equipped with specific instruments for various scientific and technological missions. These include communications satellites like Starlink; space stations such as the ISS; scientific satellites like the Hubble; Earth observation satellites from companies like Planet Labs, Umbra, and HawkEye 360; GPS; miniature CubeSats for education and research; and military/defense satellites.

Loading next visibility...
Identifier
63133, 2025-043B
Orbit
LEO
Last TLE update
20 hours ago
Origin
Manufacturer
SpaceX/Seattle
Mission
Operational Commercial Communications
Bus & Motor
STARLINK V2M, Unknown motor
Mass
730 kg wet, ~700 kg dry
Launch date (UTC)
2025-03-03 (2 months ago)
Launch vehicle
FALCON 9
Launch site
Air Force Eastern Test Range (AFETR)
Object type
Payload
Rocket body
Debris
Shape & HBR
Box + 2 Pan, 29 m
Radar Cross Section
36.964 m², Large (>1 m²)

Expand to show TLE details & history

TLE from 20 hours ago
0 STARLINK-11604
1 63133U 25043B   25132.72560429 -.00001972  00000-0 -11880-4 0  9991
2 63133  43.0015 265.2481 0002194 278.0466  82.0152 15.70817303 12015
Epoch: 2025-05-12T17:24Z
Definitive object data (Epoch: 2025-05-12T17:24:52.21Z)
Latitude
-0.00007°
Longitude
133.29592°
Altitude
356.126 km
Speed
7.697 km/s
True Right ascension
17h 40m 59s
True Declination
0° 00' 00"
Sunlit
Object was in full shadow at TLE epoch
Visualization TLE readout
Latitude
-1.49256°
Longitude
126.72166°
Altitude
356.141 km
Speed
7.697 km/s
Apparent Right ascension
14h 21m 40s
Apparent Declination
-32° 56' 33"
Sunlit
Object is in full shadow
Visualization observer readout
Local Sidereal Time
21:40:19
Azimuth
253.38° W
Elevation
-34.438°
Doppler factor
1
Orbital elements
Apogee altitude
360.019 km
Perigee altitude
357.063 km
Semi-major axis
6,736.678 km
Eccentricity
0.0002194
Inclination
43.0015°
RAAN
265.2481°
Arg. of periapsis
278.0466°
True anomaly
82.0401°
Mean anomaly
82.0152°
Eccentric anomaly
82.02765°
Mean motion
3.92531 °/min
BSTAR
-0.00001188
Orbital period
91.71 mins
Loading maneuver chart data...
Loading SW <> Apogee altitude chart data...
Loading historical data...
Loading historical data...
Loading historical data...
Loading historical data...
Loading historical data...
Loading historical data...
Loading historical data...

STARLINK-11604 Visibility forecast

Observer location: undefined°, undefined°

Span
Click to sort rows by Start time (UTC) header in descending order
Start Az.
Max El. time (UTC)
Max El. Az.
Max El.
End time (UTC)
End Az.
5 mins2025-05-13 13:31:36.178Z263.082° W2025-05-13 13:34:36.178Z40.256° NE38.626°2025-05-13 13:36:36.178Z68.191° E
4 mins2025-05-13 15:08:36.178Z296.757° NW2025-05-13 15:10:36.178Z14.441° NNE34.443°2025-05-13 15:12:36.178Z72.865° E
4 mins2025-05-13 16:45:36.178Z281.92° WNW2025-05-13 16:46:36.178Z226.184° WSW44.374°2025-05-13 16:49:36.178Z113.628° SE
|